TimeCDT,TemperatureF,Dew PointF,Humidity,Sea Level PressureIn,VisibilityMPH,Wind Direction,Wind SpeedMPH,Gust SpeedMPH,PrecipitationIn,Events,Conditions,WindDirDegrees,DateUTC
12:13 AM,42.8,42.8,100,29.74,10.0,West,3.5,-,N/A,,Overcast,260,2012-10-20 05:13:00
12:33 AM,42.8,42.8,100,29.74,7.0,WSW,5.8,-,N/A,,Overcast,250,2012-10-20 05:33:00
12:54 AM,42.8,42.8,100,29.74,7.0,Calm,Calm,-,N/A,,Overcast,0,2012-10-20 05:54:00
1:13 AM,42.8,42.8,100,29.73,2.5,Calm,Calm,-,N/A,,Overcast,0,2012-10-20 06:13:00
1:33 AM,42.8,41.0,93,29.73,1.0,Calm,Calm,-,N/A,,Overcast,0,2012-10-20 06:33:00
1:54 AM,42.8,42.8,100,29.74,0.5,WSW,4.6,-,N/A,Fog,Fog,250,2012-10-20 06:54:00
2:13 AM,42.8,41.0,93,29.74,0.5,Calm,Calm,-,N/A,Fog,Fog,0,2012-10-20 07:13:00
2:33 AM,42.8,41.0,93,29.74,0.2,Calm,Calm,-,N/A,Fog,Fog,0,2012-10-20 07:33:00
2:54 AM,42.8,41.0,93,29.75,0.2,WSW,4.6,-,N/A,Fog,Fog,240,2012-10-20 07:54:00
3:13 AM,42.8,41.0,93,29.75,0.2,WSW,3.5,-,N/A,Fog,Fog,250,2012-10-20 08:13:00
3:34 AM,42.8,41.0,93,29.74,0.2,SW,3.5,-,N/A,Fog,Fog,230,2012-10-20 08:34:00
3:54 AM,42.8,41.0,93,29.74,0.2,WSW,4.6,-,N/A,,Overcast,250,2012-10-20 08:54:00
4:13 AM,41.0,41.0,100,29.74,0.2,SW,4.6,-,N/A,,Overcast,230,2012-10-20 09:13:00
4:33 AM,41.0,41.0,100,29.74,0.5,WSW,3.5,-,N/A,Fog,Fog,240,2012-10-20 09:33:00
4:53 AM,41.0,41.0,100,29.74,0.2,Calm,Calm,-,N/A,Fog,Fog,0,2012-10-20 09:53:00
5:13 AM,41.0,41.0,100,29.74,0.5,Calm,Calm,-,N/A,Fog,Fog,0,2012-10-20 10:13:00
5:34 AM,41.0,41.0,100,29.74,0.5,Calm,Calm,-,N/A,Fog,Fog,0,2012-10-20 10:34:00
5:53 AM,41.0,41.0,100,29.75,0.5,Calm,Calm,-,N/A,Fog,Fog,0,2012-10-20 10:53:00
6:13 AM,41.0,41.0,100,29.75,0.2,SSW,3.5,-,N/A,Fog,Fog,210,2012-10-20 11:13:00
6:34 AM,41.0,41.0,100,29.74,0.2,Calm,Calm,-,N/A,Fog,Fog,0,2012-10-20 11:34:00
6:53 AM,41.0,39.2,93,29.74,0.5,South,3.5,-,N/A,Fog,Fog,170,2012-10-20 11:53:00
7:13 AM,41.0,39.2,93,29.75,2.0,South,3.5,-,N/A,,Overcast,170,2012-10-20 12:13:00
7:34 AM,41.0,39.2,93,29.75,0.5,Calm,Calm,-,N/A,Fog,Fog,0,2012-10-20 12:34:00
7:53 AM,41.0,41.0,100,29.76,0.8,South,3.5,-,N/A,,Overcast,190,2012-10-20 12:53:00
8:13 AM,41.0,41.0,100,29.77,0.2,SSW,3.5,-,N/A,Fog,Fog,200,2012-10-20 13:13:00
8:34 AM,41.0,41.0,100,29.77,0.2,SSW,4.6,-,N/A,Fog,Fog,210,2012-10-20 13:34:00
8:53 AM,41.0,41.0,100,29.77,4.0,South,5.8,-,N/A,,Overcast,180,2012-10-20 13:53:00
9:13 AM,41.0,41.0,100,29.77,5.0,South,4.6,-,N/A,,Overcast,190,2012-10-20 14:13:00
9:34 AM,42.8,41.0,93,29.78,5.0,SSW,8.1,-,N/A,,Overcast,200,2012-10-20 14:34:00
9:53 AM,42.8,41.0,93,29.77,10.0,SSW,8.1,-,N/A,,Overcast,200,2012-10-20 14:53:00
10:13 AM,42.8,42.8,100,29.77,10.0,South,9.2,-,N/A,,Overcast,180,2012-10-20 15:13:00
10:34 AM,42.8,42.8,100,29.77,10.0,SSW,9.2,-,N/A,,Overcast,200,2012-10-20 15:34:00
10:53 AM,44.6,41.0,87,29.77,10.0,SSW,8.1,-,N/A,,Overcast,200,2012-10-20 15:53:00
11:13 AM,44.6,42.8,93,29.76,10.0,South,9.2,-,N/A,,Overcast,190,2012-10-20 16:13:00
11:33 AM,46.4,42.8,87,29.76,10.0,South,9.2,-,N/A,,Overcast,180,2012-10-20 16:33:00
11:54 AM,46.4,42.8,87,29.76,10.0,South,10.4,-,N/A,,Scattered Clouds,190,2012-10-20 16:54:00
12:13 PM,48.2,42.8,82,29.76,10.0,South,10.4,-,N/A,,Mostly Cloudy,190,2012-10-20 17:13:00
12:33 PM,50.0,42.8,76,29.75,10.0,South,12.7,-,N/A,,Mostly Cloudy,170,2012-10-20 17:33:00
12:54 PM,48.2,42.8,82,29.74,10.0,South,12.7,-,N/A,,Overcast,170,2012-10-20 17:54:00
1:13 PM,48.2,42.8,82,29.74,10.0,South,11.5,-,N/A,,Overcast,170,2012-10-20 18:13:00
1:33 PM,48.2,42.8,82,29.74,10.0,South,10.4,-,N/A,,Overcast,170,2012-10-20 18:33:00
2:13 PM,48.2,42.8,82,29.74,10.0,South,11.5,-,N/A,,Overcast,180,2012-10-20 19:13:00
2:33 PM,48.2,42.8,82,29.73,10.0,SE,12.7,-,N/A,,Overcast,140,2012-10-20 19:33:00
2:54 PM,48.2,42.8,82,29.72,10.0,SSE,11.5,-,N/A,,Overcast,160,2012-10-20 19:54:00
3:13 PM,48.2,42.8,82,29.72,10.0,SSE,12.7,-,N/A,,Overcast,160,2012-10-20 20:13:00
3:33 PM,48.2,42.8,82,29.72,10.0,SSE,11.5,-,N/A,,Overcast,150,2012-10-20 20:33:00
4:13 PM,48.2,42.8,82,29.72,10.0,SSE,12.7,-,N/A,,Overcast,160,2012-10-20 21:13:00
4:33 PM,48.2,42.8,82,29.72,10.0,SSE,13.8,-,N/A,,Mostly Cloudy,150,2012-10-20 21:33:00
4:53 PM,48.2,42.8,82,29.73,10.0,SSE,10.4,-,N/A,,Overcast,150,2012-10-20 21:53:00
5:13 PM,48.2,42.8,82,29.73,10.0,SSE,11.5,-,N/A,,Mostly Cloudy,150,2012-10-20 22:13:00
5:34 PM,48.2,42.8,82,29.73,10.0,SE,15.0,-,N/A,,Mostly Cloudy,140,2012-10-20 22:34:00
5:53 PM,48.2,42.8,82,29.73,10.0,SSE,10.4,-,N/A,,Scattered Clouds,150,2012-10-20 22:53:00
6:13 PM,46.4,42.8,87,29.72,10.0,SE,10.4,-,N/A,,Clear,130,2012-10-20 23:13:00
6:34 PM,46.4,42.8,87,29.72,10.0,SE,9.2,-,N/A,,Clear,140,2012-10-20 23:34:00
6:53 PM,44.6,42.8,93,29.72,10.0,SE,10.4,-,N/A,,Clear,130,2012-10-20 23:53:00
7:13 PM,44.6,42.8,93,29.72,10.0,SE,8.1,-,N/A,,Clear,130,2012-10-21 00:13:00
7:34 PM,44.6,42.8,93,29.72,10.0,SE,8.1,-,N/A,,Clear,130,2012-10-21 00:34:00
8:13 PM,44.6,42.8,93,29.73,10.0,SE,10.4,-,N/A,,Clear,130,2012-10-21 01:13:00
8:33 PM,44.6,42.8,93,29.74,10.0,SE,9.2,-,N/A,,Clear,130,2012-10-21 01:33:00
8:53 PM,44.6,42.8,93,29.74,10.0,SE,8.1,-,N/A,,Clear,130,2012-10-21 01:53:00
9:13 PM,44.6,42.8,93,29.74,10.0,SE,9.2,-,N/A,,Clear,130,2012-10-21 02:13:00
9:33 PM,44.6,42.8,93,29.74,10.0,SE,9.2,-,N/A,,Clear,130,2012-10-21 02:33:00
9:53 PM,44.6,42.8,93,29.73,10.0,SE,10.4,-,N/A,,Clear,130,2012-10-21 02:53:00
10:13 PM,44.6,42.8,93,29.74,10.0,SE,10.4,-,N/A,,Clear,140,2012-10-21 03:13:00
10:33 PM,44.6,42.8,93,29.74,10.0,SE,11.5,-,N/A,,Clear,130,2012-10-21 03:33:00
10:53 PM,44.6,42.8,93,29.74,10.0,SE,12.7,-,N/A,,Clear,140,2012-10-21 03:53:00
11:33 PM,44.6,42.8,93,29.74,10.0,SE,10.4,-,N/A,,Clear,140,2012-10-21 04:33:00
11:54 PM,44.6,42.8,93,29.74,10.0,SSE,9.2,-,N/A,,Clear,150,2012-10-21 04:54:00